Terminal Aerodrome Forecast
Issued by NWS

Home | Current Version | Previous Version | Text Only | Print | Product List | Glossary On
Versions: 1 2 3 4 5 6 7 8 9 10 11 12 13 14 15 16 17 18 19 20 21 22 23 24 25
805
FTUS42 KKEY 270521
TAFMTH
TAF
KMTH 270521Z 2706/2806 09008KT P6SM VCSH SCT025
     FM271500 10011G17KT P6SM FEW025=

USA.gov is the U.S. government's official web portal to all federal, state and local government web resources and services.